Find OneWeb SL0243

NORAD ID: 48774 Int'l Des: 2021-045 Owner: ONEWEBN Country: UK Constellation: oneweb operational
LEOCIRCULARPOLARONEWEB_TYPE

实时位置

正在加载3D地球...

关于 OneWeb SL0243

正在加载描述...

即将过境

Passes for default location (London). Set your location on the main map for personalized predictions.

高度历史

Loading altitude history...

两行轨道根数

1 48774U 21045H 26127.37425566 .00000195 00000-0 48409-3 0 9991
2 48774 87.8964 267.3558 0002208 87.5990 272.5393 13.15549332238998
Epoch: May 7, 2026 • Age: 13 hours

当前状态

高度 1203.4 km
速度 7.25 km/s
星下点 14.46°N, 74.55°E
发射日期 May 28, 2021
运行时间 4.9 years
类型 internet

技术详情

分类 Payload
质量 148.00 kg
干质量 140.00 kg
总质量 148.00 kg
长度 1.30 m
直径 1.00 m
跨度 5.00 m
形状 Trapezoid+2 pan
制造商 ONEWUS
平台类型 ARROW
阶段状态 In Orbit
所有者/国家 ONEWEBN/UK

Most Searched